New Bern, NC

7:37 AM EDT on September 29, 2016 (GMT -0400)
Craven County Regional

Weather History for KEWN - October, 2011

Change the Weather History Date:

Thursday, October 20, 2011

  Actual Average Record
Temperature  
Mean Temperature 58 °F 63 °F  
Max Temperature 66 °F 74 °F 88 °F (1969)
Min Temperature 49 °F 52 °F 33 °F (1948)
Degree Days  
Heating Degree Days 7 4  
Month to date heating degree days 40 49  
Since 1 July heating degree days 41 56  
Cooling Degree Days 0 2  
Month to date cooling degree days 54 66  
Year to date cooling degree days 2187 1869  
Growing Degree Days 8 (Base 50)    
Moisture  
Dew Point 44 °F    
Average Humidity 59    
Maximum Humidity 80    
Minimum Humidity 37    
Precipitation  
Precipitation 0.00 in 0.09 in 2.84 in (1958)
Month to date precipitation 1.65 2.23  
Year to date precipitation 36.44 44.92  
Snow  
Snow 0.00 in - - ()
Month to date snowfall 0.0  
Since 1 July snowfall 0.0  
Snow Depth 0.00 in    
Sea Level Pressure  
Sea Level Pressure 29.78 in    
Wind  
Wind Speed 10 mph (WSW)    
Max Wind Speed 21 mph    
Max Gust Speed 30 mph    
Visibility 10 miles    
Events      
T = Trace of Precipitation, MM = Missing Value Source: NWS Daily Summary

Daily Weather History Graph

Daily Weather History Graph

Search for Another Location

Airport or City:

Trip Planner

Search our weather history database for the weather conditions in past years. The results will help you decide how hot, cold, wet, or windy it might be!

Date:

Astronomy

Oct. 20, 2011 Rise Set
Actual Time 7:18 AM EDT 6:27 PM EDT
Civil Twilight 6:52 AM EDT 6:52 PM EDT
Nautical Twilight 6:22 AM EDT 7:22 PM EDT
Astronomical Twilight 5:53 AM EDT 7:51 PM EDT
Moon 12:17 AM EDT (10/20) 2:20 PM EDT (10/20)
Length of Visible Light 12h 00m
Length of Day
11h 09m
Last Quarter, 44% of the Moon is Illuminated
Oct 20
Last Quarter
Oct 26
New
Nov 2
First Quarter
Nov 10
Full
Nov 18
Last Quarter

Hourly Weather History & Observations

Time (EDT) Temp. Dew Point Humidity Pressure Visibility Wind Dir Wind Speed Gust Speed Precip Events Conditions
12:54 AM 57.9 °F 48.9 °F 72% 29.57 in 10.0 mi WSW 10.4 mph 24.2 mph N/A   Mostly Cloudy
1:07 AM 57.2 °F 48.2 °F 72% 29.57 in 10.0 mi WSW 10.4 mph 21.9 mph N/A   Scattered Clouds
1:30 AM 57.2 °F 46.4 °F 67% 29.59 in 10.0 mi West 18.4 mph 25.3 mph N/A   Mostly Cloudy
1:54 AM 55.9 °F 45.0 °F 67% 29.60 in 10.0 mi WSW 9.2 mph 21.9 mph N/A   Scattered Clouds
2:54 AM 54.0 °F 43.0 °F 66% 29.62 in 10.0 mi WSW 11.5 mph 25.3 mph N/A   Clear
3:54 AM 52.0 °F 43.0 °F 71% 29.65 in 10.0 mi WSW 11.5 mph 23.0 mph N/A   Clear
4:54 AM 51.1 °F 42.1 °F 71% 29.69 in 10.0 mi WSW 11.5 mph 18.4 mph N/A   Clear
6:54 AM 50.0 °F 42.1 °F 74% 29.75 in 10.0 mi WSW 12.7 mph 18.4 mph N/A   Clear
7:54 AM 50.0 °F 42.1 °F 74% 29.78 in 10.0 mi SW 8.1 mph - N/A   Clear
8:54 AM 53.6 °F 42.8 °F 67% 29.80 in 10.0 mi SW 16.1 mph 21.9 mph N/A   Clear
9:54 AM 55.9 °F 42.1 °F 60% 29.81 in 10.0 mi WSW 16.1 mph 25.3 mph N/A   Clear
10:54 AM 57.9 °F 43.0 °F 58% 29.82 in 10.0 mi SW 12.7 mph 24.2 mph N/A   Clear
11:54 AM 60.1 °F 43.0 °F 53% 29.81 in 10.0 mi SW 16.1 mph 23.0 mph N/A   Clear
12:54 PM 63.0 °F 43.0 °F 48% 29.80 in 10.0 mi WSW 12.7 mph 21.9 mph N/A   Clear
1:54 PM 64.9 °F 42.1 °F 43% 29.78 in 10.0 mi WSW 13.8 mph 28.8 mph N/A   Clear
2:54 PM 66.0 °F 39.9 °F 38% 29.78 in 10.0 mi WSW 15.0 mph 26.5 mph N/A   Clear
3:54 PM 64.9 °F 41.0 °F 42% 29.79 in 10.0 mi West 16.1 mph 25.3 mph N/A   Clear
4:54 PM 64.9 °F 42.1 °F 43% 29.81 in 10.0 mi WSW 11.5 mph 21.9 mph N/A   Clear
5:54 PM 62.1 °F 43.0 °F 50% 29.84 in 10.0 mi SW 6.9 mph - N/A   Clear
6:54 PM 57.9 °F 44.1 °F 60% 29.87 in 10.0 mi WSW 4.6 mph - N/A   Clear
7:54 PM 55.9 °F 45.0 °F 67% 29.91 in 10.0 mi WSW 5.8 mph - N/A   Clear
8:54 PM 54.0 °F 45.0 °F 72% 29.94 in 10.0 mi SW 3.5 mph - N/A   Clear
9:54 PM 53.1 °F 44.1 °F 71% 29.97 in 10.0 mi WSW 4.6 mph - N/A   Clear
10:54 PM 50.0 °F 44.1 °F 80% 29.99 in 10.0 mi SSW 4.6 mph - N/A   Clear
11:54 PM 50.0 °F 44.1 °F 80% 29.99 in 10.0 mi SW 5.8 mph - N/A   Clear